QPF
0.00 0.00 0.00 0.01 0.01 0.01 0.01 0.00 0.00 0.01 0.01 0.01 0.02 0.03 0.03 0.03 0.02 0.01 0.01 0.02 0.02 0.02 0.02 0.02 0.01 0.02 0.01 0.02 0.01 0.01 0.01 0.02 0.01 0.02 0.02 0.02 0.03 0.03 0.02 0.02 0.02 0.03 0.03 0.03
0.00 0.00 0.00 0.00 0.00 0.00 0.00 0.00 0.00 0.00 0.00 0.01 0.02 0.04 0.03 0.02 0.02 0.02 0.01 0.01 0.03 0.03 0.02 0.01 0.01 0.02 0.02 0.02 0.01 0.02 0.01 0.01 0.01 0.01 0.02 0.02 0.03 0.03 0.02 0.01 0.01 0.02 0.02 0.01
0.00 0.00 0.00 0.00 0.00 0.00 0.00 0.00 0.00 0.00 0.00 0.01 0.04 0.07 0.03 0.02 0.02 0.01 0.01 0.01 0.03 0.03 0.02 0.02 0.02 0.02 0.02 0.02 0.02 0.02 0.02 0.02 0.01 0.02 0.03 0.03 0.03 0.03 0.02 0.01 0.01 0.01 0.01 0.01
0.00 0.00 0.00 0.00 0.00 0.00 0.00 0.00 0.00 0.00 0.01 0.01 0.01 0.01 0.01 0.02 0.02 0.01 0.01 0.03 0.03 0.03 0.03 0.03 0.03 0.03 0.03 0.04 0.03 0.02 0.02 0.01 0.01 0.01 0.02 0.03 0.02 0.02 0.02 0.01 0.01 0.01 0.01 0.02
0.00 0.00 0.00 0.00 0.00 0.00 0.00 0.00 0.00 0.00 0.00 0.00 0.00 0.00 0.00 0.01 0.01 0.02 0.02 0.03 0.03 0.03 0.04 0.04 0.05 0.04 0.05 0.05 0.04 0.03 0.03 0.02 0.02 0.01 0.01 0.01 0.02 0.03 0.04 0.05 0.03 0.03 0.03 0.03
0.00 0.00 0.00 0.00 0.00 0.00 0.00 0.00 0.00 0.00 0.01 0.00 0.01 0.01 0.01 0.01 0.01 0.02 0.04 0.04 0.05 0.05 0.06 0.08 0.10 0.07 0.05 0.04 0.03 0.03 0.03 0.02 0.02 0.01 0.01 0.01 0.01 0.03 0.05 0.08 0.06 0.05 0.05 0.04
0.00 0.00 0.00 0.00 0.00 0.00 0.00 0.00 0.00 0.00 0.00 0.00 0.01 0.01 0.01 0.01 0.01 0.03 0.04 0.05 0.07 0.07 0.06 0.09 0.08 0.04 0.03 0.02 0.03 0.05 0.03 0.02 0.01 0.01 0.01 0.01 0.02 0.03 0.04 0.04 0.04 0.05 0.05 0.04
0.00 0.00 0.00 0.00 0.00 0.00 0.00 0.00 0.00 0.00 0.00 0.00 0.00 0.01 0.01 0.01 0.01 0.03 0.04 0.04 0.04 0.03 0.03 0.07 0.03 0.02 0.02 0.02 0.04 0.05 0.03 0.02 0.02 0.02 0.03 0.03 0.05 0.05 0.04 0.03 0.03 0.04 0.04 0.06
0.00 0.00 0.00 0.00 0.00 0.00 0.00 0.00 0.00 0.00 0.00 0.00 0.00 0.01 0.01 0.01 0.02 0.03 0.03 0.03 0.03 0.02 0.02 0.03 0.03 0.02 0.02 0.02 0.03 0.04 0.03 0.02 0.02 0.02 0.03 0.04 0.06 0.07 0.05 0.05 0.05 0.07 0.10 0.10
0.00 0.00 0.00 0.00 0.00 0.00 0.00 0.00 0.00 0.00 0.00 0.00 0.00 0.00 0.01 0.01 0.02 0.03 0.02 0.02 0.02 0.02 0.02 0.03 0.03 0.02 0.02 0.02 0.03 0.06 0.04 0.04 0.04 0.04 0.04 0.04 0.04 0.06 0.08 0.10 0.12 0.15 0.14 0.14
0.00 0.00 0.00 0.00 0.00 0.00 0.00 0.00 0.00 0.00 0.00 0.00 0.00 0.01 0.01 0.01 0.01 0.01 0.01 0.01 0.02 0.02 0.02 0.02 0.02 0.02 0.02 0.02 0.02 0.04 0.04 0.04 0.04 0.04 0.04 0.04 0.03 0.05 0.08 0.09 0.11 0.13 0.15 0.14
0.00 0.00 0.00 0.00 0.00 0.00 0.00 0.00 0.00 0.00 0.00 0.00 0.00 0.00 0.00 0.00 0.00 0.00 0.01 0.01 0.02 0.02 0.01 0.01 0.02 0.03 0.03 0.02 0.03 0.02 0.03 0.03 0.03 0.02 0.02 0.01 0.02 0.04 0.05 0.07 0.07 0.07 0.07 0.07
0.00 0.00 0.00 0.00 0.00 0.00 0.00 0.00 0.00 0.00 0.00 0.00 0.00 0.00 0.00 0.01 0.01 0.01 0.01 0.01 0.02 0.02 0.01 0.01 0.02 0.03 0.03 0.03 0.03 0.03 0.03 0.03 0.02 0.01 0.01 0.01 0.01 0.04 0.06 0.05 0.04 0.03 0.03 0.03
0.00 0.00 0.00 0.00 0.00 0.00 0.00 0.00 0.00 0.00 0.00 0.00 0.00 0.00 0.01 0.01 0.01 0.01 0.01 0.01 0.01 0.01 0.02 0.02 0.02 0.02 0.03 0.03 0.05 0.05 0.02 0.03 0.02 0.01 0.01 0.01 0.02 0.04 0.05 0.05 0.04 0.03 0.03 0.02
0.00 0.00 0.00 0.00 0.00 0.00 0.00 0.00 0.00 0.00 0.00 0.00 0.00 0.00 0.01 0.01 0.01 0.01 0.01 0.01 0.01 0.01 0.02 0.02 0.03 0.03 0.03 0.04 0.05 0.03 0.01 0.02 0.02 0.01 0.01 0.01 0.03 0.03 0.04 0.03 0.03 0.03 0.03 0.03
0.00 0.00 0.00 0.00 0.00 0.00 0.00 0.00 0.00 0.00 0.00 0.00 0.00 0.00 0.00 0.00 0.01 0.01 0.01 0.01 0.01 0.02 0.02 0.02 0.02 0.03 0.03 0.03 0.03 0.03 0.02 0.01 0.01 0.01 0.01 0.01 0.02 0.02 0.02 0.02 0.02 0.02 0.02 0.02
0.00 0.00 0.00 0.00 0.00 0.01 0.00 0.00 0.00 0.00 0.00 0.00 0.00 0.00 0.00 0.00 0.01 0.02 0.01 0.01 0.01 0.01 0.02 0.02 0.02 0.02 0.02 0.02 0.02 0.02 0.02 0.01 0.02 0.01 0.00 0.00 0.00 0.01 0.02 0.02 0.02 0.02 0.02 0.01
0.00 0.00 0.00 0.00 0.01 0.01 0.00 0.00 0.00 0.00 0.00 0.00 0.00 0.00 0.00 0.01 0.01 0.01 0.01 0.01 0.01 0.01 0.02 0.02 0.02 0.02 0.01 0.01 0.01 0.01 0.01 0.01 0.01 0.00 0.00 0.00 0.00 0.01 0.01 0.01 0.01 0.01 0.01 0.01
0.00 0.00 0.00 0.00 0.00 0.00 0.00 0.00 0.00 0.00 0.00 0.00 0.00 0.00 0.00 0.01 0.01 0.01 0.01 0.01 0.01 0.01 0.01 0.01 0.01 0.01 0.01 0.01 0.01 0.01 0.01 0.01 0.01 0.00 0.00 0.00 0.01 0.01 0.01 0.01 0.01 0.01 0.01 0.01
0.00 0.00 0.00 0.00 0.01 0.00 0.00 0.00 0.00 0.00 0.01 0.00 0.01 0.01 0.01 0.01 0.01 0.01 0.01 0.01 0.02 0.01 0.01 0.01 0.02 0.02 0.03 0.02 0.02 0.01 0.01 0.01 0.01 0.01 0.01 0.01 0.01 0.01 0.01 0.01 0.01 0.01 0.01 0.01
0.00 0.00 0.00 0.00 0.00 0.00 0.00 0.00 0.00 0.00 0.00 0.00 0.00 0.01 0.01 0.01 0.01 0.02 0.01 0.01 0.01 0.01 0.02 0.02 0.02 0.01 0.02 0.03 0.02 0.02 0.02 0.02 0.01 0.01 0.01 0.01 0.01 0.01 0.01 0.01 0.01 0.01 0.01 0.01
0.00 0.00 0.00 0.00 0.00 0.00 0.00 0.00 0.00 0.00 0.00 0.00 0.00 0.01 0.01 0.01 0.01 0.01 0.01 0.01 0.01 0.01 0.01 0.02 0.01 0.01 0.01 0.01 0.01 0.01 0.01 0.02 0.01 0.01 0.01 0.01 0.01 0.01 0.01 0.01 0.01 0.01 0.01 0.01
0.00 0.00 0.01 0.01 0.00 0.01 0.00 0.00 0.00 0.00 0.00 0.00 0.00 0.00 0.00 0.00 0.01 0.01 0.01 0.01 0.02 0.02 0.02 0.02 0.02 0.01 0.01 0.01 0.01 0.01 0.01 0.01 0.01 0.01 0.00 0.01 0.01 0.01 0.01 0.02 0.01 0.01 0.01 0.01
0.00 0.01 0.01 0.01 0.01 0.01 0.01 0.01 0.00 0.00 0.00 0.00 0.00 0.01 0.01 0.01 0.01 0.01 0.02 0.02 0.02 0.03 0.03 0.04 0.03 0.02 0.02 0.01 0.01 0.01 0.01 0.01 0.01 0.01 0.01 0.01 0.01 0.02 0.02 0.02 0.02 0.01 0.01 0.01
0.01 0.01 0.01 0.02 0.01 0.02 0.01 0.01 0.01 0.01 0.00 0.00 0.00 0.00 0.01 0.01 0.01 0.01 0.01 0.01 0.02 0.02 0.03 0.03 0.03 0.02 0.02 0.01 0.01 0.01 0.01 0.01 0.01 0.01 0.01 0.01 0.01 0.01 0.01 0.01 0.01 0.02 0.02 0.02
0.01 0.01 0.02 0.02 0.02 0.02 0.02 0.01 0.01 0.01 0.01 0.01 0.01 0.00 0.01 0.01 0.01 0.01 0.02 0.02 0.02 0.03 0.03 0.02 0.02 0.02 0.01 0.01 0.01 0.01 0.01 0.01 0.01 0.01 0.01 0.01 0.01 0.01 0.02 0.02 0.02 0.03 0.03 0.04
MSLP
1007.36 1008.01 1008.46 1008.74 1008.92 1009.07 1009.28 1009.59 1009.99 1010.46 1010.92 1011.31 1011.56 1011.64 1011.54 1011.30 1010.97 1010.62 1010.31 1010.06 1009.89 1009.78 1009.72 1009.67 1009.62 1009.57 1009.54 1009.55 1009.62 1009.77 1010.00 1010.27 1010.55 1010.78 1010.93 1010.96 1010.87 1010.69 1010.45 1010.19 1009.97 1009.82 1009.73 1009.71
1007.42 1007.86 1008.10 1008.21 1008.29 1008.44 1008.72 1009.16 1009.73 1010.37 1010.96 1011.42 1011.66 1011.66 1011.43 1011.02 1010.53 1010.04 1009.63 1009.35 1009.20 1009.16 1009.18 1009.22 1009.24 1009.22 1009.20 1009.18 1009.22 1009.34 1009.54 1009.82 1010.13 1010.43 1010.65 1010.77 1010.76 1010.63 1010.42 1010.18 1009.96 1009.78 1009.66 1009.61
1007.22 1007.43 1007.47 1007.44 1007.47 1007.66 1008.07 1008.70 1009.49 1010.32 1011.06 1011.57 1011.78 1011.67 1011.25 1010.63 1009.92 1009.26 1008.73 1008.40 1008.27 1008.31 1008.45 1008.61 1008.75 1008.82 1008.84 1008.84 1008.86 1008.95 1009.13 1009.41 1009.74 1010.09 1010.39 1010.59 1010.68 1010.63 1010.49 1010.30 1010.09 1009.91 1009.78 1009.69
1006.84 1006.83 1006.70 1006.59 1006.62 1006.91 1007.50 1008.37 1009.40 1010.43 1011.30 1011.86 1012.01 1011.73 1011.08 1010.19 1009.22 1008.32 1007.64 1007.24 1007.12 1007.24 1007.51 1007.83 1008.11 1008.31 1008.42 1008.47 1008.50 1008.59 1008.76 1009.03 1009.38 1009.78 1010.15 1010.45 1010.63 1010.69 1010.64 1010.51 1010.35 1010.19 1010.05 1009.94
1006.43 1006.24 1005.98 1005.83 1005.91 1006.35 1007.15 1008.26 1009.53 1010.76 1011.74 1012.30 1012.35 1011.87 1010.96 1009.75 1008.48 1007.33 1006.45 1005.94 1005.81 1005.99 1006.39 1006.88 1007.34 1007.69 1007.93 1008.06 1008.15 1008.25 1008.42 1008.70 1009.08 1009.51 1009.95 1010.33 1010.62 1010.79 1010.83 1010.78 1010.68 1010.55 1010.42 1010.30
1006.11 1005.78 1005.45 1005.29 1005.46 1006.06 1007.07 1008.41 1009.89 1011.27 1012.32 1012.85 1012.77 1012.08 1010.87 1009.35 1007.76 1006.34 1005.25 1004.62 1004.45 1004.68 1005.19 1005.84 1006.47 1007.00 1007.38 1007.63 1007.79 1007.94 1008.14 1008.43 1008.82 1009.29 1009.79 1010.25 1010.63 1010.89 1011.03 1011.07 1011.02 1010.94 1010.83 1010.72
1005.99 1005.55 1005.18 1005.05 1005.31 1006.05 1007.23 1008.75 1010.38 1011.85 1012.92 1013.39 1013.17 1012.25 1010.78 1008.97 1007.10 1005.42 1004.15 1003.39 1003.17 1003.43 1004.04 1004.82 1005.61 1006.31 1006.84 1007.21 1007.46 1007.67 1007.91 1008.23 1008.65 1009.15 1009.69 1010.21 1010.66 1011.01 1011.23 1011.33 1011.35 1011.30 1011.22 1011.13
1006.07 1005.58 1005.19 1005.09 1005.42 1006.25 1007.54 1009.15 1010.83 1012.33 1013.36 1013.75 1013.38 1012.29 1010.61 1008.58 1006.50 1004.64 1003.22 1002.37 1002.12 1002.39 1003.07 1003.95 1004.87 1005.70 1006.37 1006.86 1007.21 1007.49 1007.77 1008.12 1008.56 1009.09 1009.66 1010.22 1010.73 1011.13 1011.41 1011.57 1011.63 1011.62 1011.57 1011.49
1006.34 1005.82 1005.43 1005.34 1005.69 1006.54 1007.84 1009.44 1011.09 1012.52 1013.47 1013.75 1013.27 1012.06 1010.26 1008.12 1005.95 1004.00 1002.52 1001.64 1001.38 1001.67 1002.39 1003.34 1004.35 1005.28 1006.05 1006.63 1007.06 1007.41 1007.74 1008.12 1008.59 1009.13 1009.72 1010.31 1010.84 1011.28 1011.59 1011.78 1011.86 1011.88 1011.85 1011.80
1006.70 1006.18 1005.78 1005.68 1006.00 1006.79 1008.01 1009.49 1011.02 1012.32 1013.14 1013.32 1012.76 1011.50 1009.70 1007.57 1005.42 1003.52 1002.08 1001.22 1000.99 1001.31 1002.05 1003.04 1004.09 1005.08 1005.91 1006.55 1007.05 1007.45 1007.83 1008.24 1008.73 1009.28 1009.88 1010.47 1011.01 1011.45 1011.77 1011.97 1012.07 1012.09 1012.07 1012.03
1007.07 1006.56 1006.15 1006.01 1006.25 1006.92 1007.97 1009.26 1010.58 1011.68 1012.35 1012.43 1011.83 1010.61 1008.90 1006.91 1004.91 1003.16 1001.85 1001.10 1000.93 1001.29 1002.05 1003.04 1004.10 1005.09 1005.94 1006.62 1007.16 1007.60 1008.02 1008.46 1008.96 1009.53 1010.12 1010.71 1011.23 1011.66 1011.97 1012.16 1012.25 1012.26 1012.24 1012.21
1007.39 1006.89 1006.48 1006.28 1006.42 1006.92 1007.75 1008.79 1009.85 1010.73 1011.22 1011.21 1010.61 1009.48 1007.93 1006.16 1004.41 1002.89 1001.78 1001.18 1001.11 1001.51 1002.27 1003.24 1004.27 1005.24 1006.08 1006.78 1007.34 1007.81 1008.26 1008.73 1009.25 1009.81 1010.40 1010.97 1011.47 1011.88 1012.16 1012.33 1012.41 1012.41 1012.39 1012.36
1007.63 1007.16 1006.75 1006.51 1006.53 1006.85 1007.45 1008.21 1009.00 1009.63 1009.95 1009.85 1009.27 1008.25 1006.90 1005.39 1003.91 1002.66 1001.77 1001.34 1001.36 1001.80 1002.56 1003.49 1004.47 1005.40 1006.23 1006.92 1007.50 1008.00 1008.49 1008.99 1009.52 1010.09 1010.67 1011.22 1011.70 1012.07 1012.33 1012.48 1012.53 1012.53 1012.49 1012.46
1007.82 1007.40 1007.01 1006.74 1006.67 1006.83 1007.20 1007.71 1008.22 1008.62 1008.76 1008.56 1007.99 1007.07 1005.91 1004.64 1003.42 1002.42 1001.74 1001.45 1001.57 1002.03 1002.76 1003.65 1004.58 1005.47 1006.27 1006.97 1007.57 1008.12 1008.64 1009.17 1009.73 1010.31 1010.88 1011.41 1011.86 1012.21 1012.44 1012.57 1012.61 1012.60 1012.56 1012.53
1008.02 1007.67 1007.32 1007.05 1006.91 1006.95 1007.14 1007.41 1007.69 1007.86 1007.83 1007.53 1006.93 1006.08 1005.06 1003.97 1002.96 1002.14 1001.62 1001.44 1001.60 1002.07 1002.76 1003.60 1004.48 1005.34 1006.14 1006.86 1007.50 1008.10 1008.68 1009.26 1009.84 1010.43 1010.99 1011.50 1011.93 1012.25 1012.46 1012.58 1012.62 1012.61 1012.58 1012.55
1008.30 1008.02 1007.73 1007.48 1007.33 1007.28 1007.33 1007.43 1007.50 1007.47 1007.26 1006.84 1006.20 1005.36 1004.40 1003.41 1002.52 1001.82 1001.38 1001.24 1001.41 1001.86 1002.51 1003.30 1004.16 1005.01 1005.82 1006.58 1007.29 1007.95 1008.59 1009.22 1009.84 1010.43 1010.99 1011.48 1011.88 1012.19 1012.39 1012.50 1012.55 1012.55 1012.53 1012.52
1008.71 1008.49 1008.26 1008.05 1007.90 1007.81 1007.77 1007.73 1007.63 1007.43 1007.07 1006.52 1005.78 1004.90 1003.94 1002.98 1002.12 1001.45 1001.02 1000.88 1001.02 1001.43 1002.04 1002.80 1003.64 1004.50 1005.35 1006.17 1006.96 1007.70 1008.41 1009.09 1009.74 1010.35 1010.89 1011.37 1011.75 1012.04 1012.23 1012.35 1012.41 1012.43 1012.44 1012.44
1009.26 1009.08 1008.90 1008.73 1008.59 1008.48 1008.37 1008.23 1008.00 1007.65 1007.14 1006.46 1005.62 1004.66 1003.64 1002.65 1001.76 1001.06 1000.60 1000.42 1000.52 1000.87 1001.45 1002.19 1003.03 1003.93 1004.84 1005.73 1006.59 1007.41 1008.19 1008.91 1009.59 1010.20 1010.73 1011.18 1011.55 1011.82 1012.02 1012.14 1012.22 1012.27 1012.30 1012.33
1009.92 1009.75 1009.58 1009.43 1009.29 1009.15 1008.99 1008.76 1008.43 1007.96 1007.32 1006.53 1005.58 1004.53 1003.44 1002.39 1001.46 1000.71 1000.20 999.97 1000.02 1000.34 1000.89 1001.62 1002.48 1003.41 1004.38 1005.34 1006.27 1007.16 1007.98 1008.74 1009.42 1010.03 1010.54 1010.97 1011.32 1011.59 1011.78 1011.92 1012.01 1012.08 1012.14 1012.18
1010.63 1010.43 1010.25 1010.07 1009.90 1009.71 1009.48 1009.18 1008.75 1008.18 1007.45 1006.57 1005.54 1004.43 1003.29 1002.19 1001.22 1000.44 999.91 999.64 999.67 999.96 1000.50 1001.23 1002.11 1003.07 1004.08 1005.09 1006.06 1006.98 1007.83 1008.60 1009.27 1009.86 1010.36 1010.76 1011.09 1011.35 1011.54 1011.69 1011.81 1011.89 1011.96 1012.02
1011.32 1011.06 1010.81 1010.57 1010.33 1010.07 1009.76 1009.37 1008.86 1008.22 1007.42 1006.48 1005.41 1004.28 1003.13 1002.04 1001.08 1000.31 999.78 999.52 999.54 999.83 1000.37 1001.11 1001.99 1002.96 1003.98 1005.00 1005.98 1006.90 1007.74 1008.49 1009.14 1009.70 1010.17 1010.55 1010.87 1011.12 1011.32 1011.48 1011.60 1011.70 1011.78 1011.84
1011.93 1011.59 1011.25 1010.91 1010.56 1010.20 1009.79 1009.31 1008.73 1008.02 1007.18 1006.23 1005.17 1004.07 1002.97 1001.94 1001.04 1000.34 999.86 999.64 999.69 1000.00 1000.54 1001.26 1002.13 1003.08 1004.07 1005.05 1006.00 1006.88 1007.68 1008.38 1009.00 1009.52 1009.96 1010.33 1010.63 1010.89 1011.09 1011.26 1011.39 1011.49 1011.56 1011.61
1012.43 1012.00 1011.54 1011.09 1010.62 1010.14 1009.62 1009.04 1008.39 1007.64 1006.79 1005.86 1004.86 1003.83 1002.83 1001.91 1001.13 1000.53 1000.14 1000.00 1000.09 1000.42 1000.95 1001.65 1002.47 1003.36 1004.28 1005.19 1006.05 1006.86 1007.59 1008.24 1008.80 1009.29 1009.71 1010.07 1010.37 1010.62 1010.84 1011.01 1011.14 1011.23 1011.29 1011.32
1012.79 1012.28 1011.73 1011.16 1010.57 1009.97 1009.34 1008.68 1007.96 1007.18 1006.34 1005.46 1004.54 1003.62 1002.75 1001.98 1001.33 1000.86 1000.59 1000.52 1000.67 1001.01 1001.52 1002.16 1002.91 1003.70 1004.51 1005.31 1006.08 1006.79 1007.43 1008.01 1008.53 1008.99 1009.39 1009.74 1010.05 1010.31 1010.53 1010.70 1010.83 1010.91 1010.95 1010.94
1013.03 1012.47 1011.84 1011.18 1010.50 1009.80 1009.08 1008.34 1007.58 1006.78 1005.96 1005.13 1004.30 1003.50 1002.77 1002.14 1001.65 1001.30 1001.13 1001.14 1001.32 1001.65 1002.12 1002.69 1003.32 1004.00 1004.69 1005.36 1006.00 1006.61 1007.17 1007.69 1008.17 1008.60 1009.00 1009.35 1009.67 1009.94 1010.16 1010.33 1010.44 1010.50 1010.51 1010.48
1013.16 1012.58 1011.93 1011.23 1010.49 1009.72 1008.94 1008.15 1007.35 1006.55 1005.75 1004.97 1004.22 1003.53 1002.92 1002.42 1002.04 1001.80 1001.70 1001.75 1001.93 1002.24 1002.64 1003.11 1003.63 1004.17 1004.72 1005.27 1005.80 1006.31 1006.80 1007.27 1007.72 1008.14 1008.54 1008.91 1009.23 1009.51 1009.73 1009.89 1009.99 1010.02 1010.01 1009.95
Thickness
5816 5801 5790 5796 5799 5799 5792 5784 5779 5788 5801 5792 5784 5783 5788 5793 5791 5788 5786 5786 5786 5787 5791 5792 5792 5790 5787 5784 5781 5779 5776 5775 5773 5770 5767 5764 5763 5763 5763 5763 5762 5761 5759 5758
5799 5794 5808 5812 5808 5801 5792 5783 5781 5790 5801 5793 5782 5782 5789 5792 5791 5791 5788 5787 5788 5787 5788 5789 5788 5788 5785 5782 5780 5778 5776 5774 5772 5770 5768 5765 5763 5762 5762 5761 5760 5759 5758 5756
5795 5804 5817 5811 5803 5796 5790 5785 5785 5784 5790 5789 5783 5775 5782 5789 5793 5793 5793 5791 5790 5789 5787 5787 5786 5785 5784 5782 5780 5779 5776 5774 5772 5770 5767 5764 5761 5759 5758 5757 5757 5757 5756 5755
5800 5812 5813 5806 5801 5799 5785 5800 5796 5789 5774 5762 5772 5751 5773 5781 5784 5788 5789 5790 5790 5791 5790 5787 5785 5784 5782 5782 5781 5778 5776 5773 5771 5768 5765 5762 5757 5754 5754 5754 5754 5754 5754 5752
5799 5811 5809 5802 5807 5807 5799 5806 5796 5786 5770 5759 5761 5751 5761 5776 5775 5784 5789 5791 5792 5792 5791 5788 5786 5785 5783 5783 5780 5777 5774 5772 5770 5767 5764 5761 5757 5755 5754 5753 5751 5750 5750 5749
5806 5818 5817 5814 5818 5815 5807 5794 5782 5769 5758 5743 5752 5747 5753 5769 5780 5786 5792 5794 5794 5794 5792 5790 5788 5785 5782 5781 5779 5776 5773 5770 5768 5766 5762 5759 5756 5753 5751 5749 5747 5746 5745 5745
5793 5806 5817 5821 5806 5805 5797 5771 5746 5741 5731 5735 5753 5750 5759 5786 5793 5793 5793 5795 5796 5794 5791 5788 5785 5782 5780 5779 5777 5775 5771 5768 5766 5764 5761 5758 5756 5753 5749 5747 5744 5742 5740 5739
5772 5775 5805 5814 5807 5794 5788 5775 5745 5732 5727 5734 5748 5748 5773 5796 5799 5800 5800 5798 5795 5792 5789 5787 5785 5782 5780 5778 5776 5773 5769 5766 5765 5762 5759 5757 5753 5751 5748 5745 5742 5740 5738 5737
5769 5774 5807 5816 5817 5805 5783 5771 5771 5745 5737 5732 5739 5755 5778 5797 5796 5796 5796 5794 5792 5791 5789 5788 5785 5783 5780 5777 5775 5772 5768 5765 5763 5760 5757 5753 5750 5748 5745 5743 5740 5737 5736 5734
5785 5776 5795 5807 5811 5803 5795 5775 5755 5740 5726 5723 5738 5747 5758 5781 5786 5789 5789 5790 5790 5789 5787 5786 5785 5783 5780 5777 5774 5771 5767 5763 5761 5758 5754 5751 5748 5745 5742 5740 5736 5734 5732 5731
5788 5773 5779 5789 5787 5784 5781 5770 5752 5737 5737 5723 5721 5742 5782 5783 5787 5786 5787 5789 5788 5786 5784 5783 5782 5780 5778 5775 5772 5767 5763 5760 5757 5754 5751 5748 5745 5743 5740 5737 5734 5732 5730 5728
5780 5764 5757 5773 5790 5795 5788 5774 5757 5745 5735 5728 5725 5744 5792 5789 5789 5788 5786 5787 5787 5785 5782 5781 5779 5776 5773 5770 5767 5764 5761 5758 5755 5752 5748 5745 5742 5740 5737 5734 5732 5730 5728 5726
5778 5759 5744 5751 5764 5778 5776 5771 5762 5748 5733 5721 5723 5747 5786 5785 5784 5784 5783 5782 5781 5780 5778 5776 5774 5771 5769 5766 5763 5760 5757 5754 5752 5749 5745 5742 5738 5736 5733 5731 5729 5727 5724 5722
5781 5755 5747 5742 5750 5763 5766 5767 5760 5750 5733 5727 5734 5751 5772 5777 5777 5778 5778 5778 5776 5775 5773 5770 5768 5766 5764 5761 5758 5756 5753 5751 5748 5745 5741 5738 5735 5732 5730 5728 5726 5724 5720 5717
5773 5752 5754 5757 5764 5765 5765 5764 5762 5756 5749 5742 5750 5753 5767 5773 5774 5775 5775 5774 5771 5769 5767 5766 5764 5762 5759 5756 5754 5751 5749 5746 5743 5739 5736 5733 5732 5729 5726 5723 5721 5718 5715 5714
5756 5749 5749 5750 5758 5759 5758 5761 5761 5759 5757 5753 5754 5755 5770 5771 5771 5770 5769 5768 5766 5764 5764 5762 5760 5758 5755 5752 5749 5746 5744 5741 5737 5733 5731 5728 5726 5723 5720 5717 5715 5712 5710 5707
5742 5741 5733 5729 5742 5747 5739 5754 5756 5755 5757 5755 5748 5756 5763 5762 5763 5761 5761 5762 5761 5759 5759 5757 5754 5751 5749 5747 5744 5740 5738 5735 5731 5728 5725 5723 5720 5716 5714 5711 5708 5706 5704 5701
5735 5727 5717 5716 5726 5716 5740 5760 5759 5753 5753 5754 5754 5755 5757 5758 5758 5759 5758 5756 5754 5754 5752 5749 5747 5745 5743 5741 5739 5735 5732 5728 5725 5723 5719 5716 5713 5710 5707 5704 5701 5700 5698 5695
5732 5723 5709 5703 5706 5716 5737 5751 5750 5744 5742 5750 5748 5749 5750 5752 5752 5749 5753 5752 5750 5749 5746 5743 5742 5739 5736 5734 5732 5729 5725 5721 5718 5715 5713 5711 5707 5704 5701 5698 5696 5694 5691 5689
5721 5718 5706 5698 5700 5701 5726 5748 5753 5744 5729 5744 5743 5741 5741 5742 5730 5734 5745 5745 5743 5742 5740 5738 5735 5732 5729 5727 5725 5721 5717 5713 5711 5709 5707 5705 5702 5698 5695 5692 5690 5688 5685 5683
5706 5702 5696 5693 5695 5706 5730 5741 5744 5720 5723 5740 5739 5736 5734 5731 5730 5733 5736 5735 5734 5733 5732 5729 5726 5724 5721 5718 5715 5711 5708 5705 5704 5702 5700 5697 5694 5691 5689 5686 5684 5681 5678 5675
5693 5690 5687 5684 5687 5699 5729 5730 5723 5723 5732 5734 5734 5732 5729 5727 5727 5727 5727 5726 5724 5722 5721 5718 5715 5714 5712 5709 5706 5702 5699 5698 5696 5694 5692 5689 5686 5684 5682 5679 5677 5674 5671 5668
5687 5690 5687 5688 5695 5712 5720 5722 5726 5726 5725 5727 5726 5725 5723 5721 5719 5718 5717 5715 5714 5712 5710 5708 5705 5703 5701 5700 5696 5693 5692 5691 5689 5686 5683 5680 5679 5676 5673 5671 5669 5666 5664 5661
5686 5687 5684 5686 5698 5707 5713 5717 5720 5722 5721 5722 5721 5719 5716 5712 5711 5709 5707 5705 5703 5702 5700 5698 5695 5692 5690 5689 5687 5685 5684 5682 5680 5677 5674 5672 5670 5668 5665 5663 5661 5658 5655 5653
5679 5680 5677 5680 5690 5697 5704 5708 5711 5714 5715 5714 5712 5711 5708 5705 5702 5700 5697 5695 5694 5692 5690 5689 5686 5683 5681 5680 5679 5677 5675 5673 5671 5668 5666 5663 5662 5659 5656 5654 5651 5649 5648 5645
5673 5673 5672 5675 5684 5684 5691 5700 5703 5704 5704 5704 5703 5700 5699 5697 5694 5692 5689 5687 5686 5684 5681 5678 5676 5674 5672 5671 5669 5668 5665 5664 5662 5659 5657 5655 5652 5650 5647 5644 5642 5640 5638 5637